Location: Alafon
(8.4500°N, 4.2333°E)
Time: 01:52:36
(UTC+00:00)

S3M - Pass Details

Date: 05 July 2020
Orbit: 950 x 1003 km, 83.0° (Epoch: 06 August)

Event Time Altitude Azimuth Distance (km) Brightness Sun altitude
Rises 19:00:02 0° 357° (N) 3,717 7.4 -13.1°
Reaches altitude 10° 19:02:33 10° 358° (N) 2,768 6.7 -13.6°
Maximum altitude 19:08:56 85° 87° (E) 1,007 4.0 -15.0°
Drops below altitude 10° 19:15:17 10° 175° (S) 2,756 6.1 -16.4°
Enters shadow 19:17:47 - 176° (S) 3,696 6.7 -17.0°
